TimeEST,TemperatureF,Dew PointF,Humidity,Sea Level PressureIn,VisibilityMPH,Wind Direction,Wind SpeedMPH,Gust SpeedMPH,PrecipitationIn,Events,Conditions,WindDirDegrees,DateUTC
12:15 AM,55.8,28.6,35,29.96,10.0,NNW,6.9,-,N/A,,Clear,330,2013-11-19 05:15:00
12:35 AM,55.2,28.4,36,29.96,10.0,NNW,6.9,-,N/A,,Clear,330,2013-11-19 05:35:00
12:55 AM,54.5,27.9,36,29.96,10.0,NNW,9.2,-,N/A,,Clear,330,2013-11-19 05:55:00
1:15 AM,54.5,26.8,34,29.96,10.0,NNW,8.1,16.1,N/A,,Clear,330,2013-11-19 06:15:00
1:35 AM,53.8,26.6,35,29.97,10.0,NNW,9.2,-,N/A,,Clear,330,2013-11-19 06:35:00
1:55 AM,53.2,26.2,35,29.97,10.0,NNW,4.6,-,N/A,,Clear,340,2013-11-19 06:55:00
2:15 AM,52.2,26.6,37,29.97,10.0,NNW,5.8,-,N/A,,Clear,340,2013-11-19 07:15:00
2:35 AM,51.6,26.6,38,29.98,10.0,NNW,5.8,-,N/A,,Clear,340,2013-11-19 07:35:00
2:55 AM,51.6,26.1,37,29.99,10.0,NNW,6.9,-,N/A,,Clear,340,2013-11-19 07:55:00
3:15 AM,50.4,27.0,40,29.99,10.0,NNW,4.6,-,N/A,,Clear,330,2013-11-19 08:15:00
3:35 AM,49.1,27.9,44,29.99,10.0,NNW,4.6,-,N/A,,Clear,340,2013-11-19 08:35:00
3:55 AM,48.7,27.3,43,30.00,10.0,NNW,4.6,-,N/A,,Clear,330,2013-11-19 08:55:00
4:15 AM,48.0,27.9,46,30.01,10.0,NNW,4.6,-,N/A,,Clear,340,2013-11-19 09:15:00
4:35 AM,47.1,28.6,49,30.02,10.0,NNW,4.6,-,N/A,,Clear,330,2013-11-19 09:35:00
4:55 AM,46.4,28.2,49,30.03,10.0,Calm,Calm,-,N/A,,Clear,0,2013-11-19 09:55:00
5:15 AM,45.1,28.8,53,30.04,10.0,NNW,3.5,-,N/A,,Clear,330,2013-11-19 10:15:00
5:35 AM,44.6,28.9,54,30.05,10.0,NNW,3.5,-,N/A,,Clear,340,2013-11-19 10:35:00
5:55 AM,44.8,28.6,53,30.05,10.0,NNW,4.6,-,N/A,,Clear,330,2013-11-19 10:55:00
6:15 AM,45.5,28.2,51,30.07,10.0,NNW,4.6,-,N/A,,Clear,330,2013-11-19 11:15:00
6:35 AM,45.0,28.0,52,30.08,10.0,NNW,5.8,-,N/A,,Clear,330,2013-11-19 11:35:00
6:55 AM,44.8,28.0,52,30.09,10.0,NNW,4.6,-,N/A,,Clear,340,2013-11-19 11:55:00
7:15 AM,44.6,28.0,52,30.10,10.0,NW,3.5,-,N/A,,Clear,320,2013-11-19 12:15:00
7:35 AM,45.7,28.4,51,30.11,10.0,North,3.5,-,N/A,,Clear,350,2013-11-19 12:35:00
7:55 AM,47.1,28.6,49,30.12,10.0,North,3.5,-,N/A,,Clear,350,2013-11-19 12:55:00
8:15 AM,48.7,27.9,44,30.12,10.0,North,3.5,-,N/A,,Clear,360,2013-11-19 13:15:00
8:35 AM,50.0,27.5,42,30.12,10.0,North,6.9,-,N/A,,Clear,350,2013-11-19 13:35:00
8:55 AM,50.9,27.3,40,30.13,10.0,NNW,5.8,-,N/A,,Clear,340,2013-11-19 13:55:00
9:15 AM,51.3,25.7,37,30.14,10.0,North,10.4,17.3,N/A,,Clear,350,2013-11-19 14:15:00
9:35 AM,52.2,26.4,37,30.15,10.0,North,10.4,16.1,N/A,,Clear,350,2013-11-19 14:35:00
9:55 AM,52.2,25.9,36,30.15,10.0,NNW,9.2,17.3,N/A,,Clear,340,2013-11-19 14:55:00
10:15 AM,53.4,26.2,35,30.16,10.0,North,9.2,-,N/A,,Clear,350,2013-11-19 15:15:00
10:35 AM,54.7,25.9,33,30.16,10.0,North,8.1,-,N/A,,Clear,10,2013-11-19 15:35:00
10:55 AM,55.2,25.9,32,30.15,10.0,NNW,8.1,18.4,N/A,,Clear,340,2013-11-19 15:55:00
11:15 AM,55.0,25.5,32,30.15,10.0,North,5.8,-,N/A,,Clear,360,2013-11-19 16:15:00
11:35 AM,56.5,25.7,31,30.15,10.0,North,8.1,-,N/A,,Clear,360,2013-11-19 16:35:00
11:55 AM,57.6,25.7,29,30.15,10.0,North,9.2,-,N/A,,Clear,350,2013-11-19 16:55:00
12:15 PM,57.9,24.8,28,30.14,10.0,NNE,9.2,-,N/A,,Clear,30,2013-11-19 17:15:00
12:35 PM,57.6,25.7,29,30.13,10.0,North,8.1,-,N/A,,Clear,10,2013-11-19 17:35:00
12:55 PM,57.7,25.0,28,30.13,10.0,North,5.8,-,N/A,,Clear,350,2013-11-19 17:55:00
1:15 PM,57.0,25.0,29,30.13,10.0,NNE,5.8,-,N/A,,Clear,20,2013-11-19 18:15:00
1:35 PM,57.6,25.9,30,30.13,10.0,North,9.2,-,N/A,,Clear,360,2013-11-19 18:35:00
1:55 PM,58.3,25.9,29,30.13,10.0,Calm,Calm,-,N/A,,Clear,0,2013-11-19 18:55:00
2:15 PM,58.1,25.5,29,30.12,10.0,North,5.8,-,N/A,,Clear,350,2013-11-19 19:15:00
2:35 PM,58.6,25.2,28,30.12,10.0,North,8.1,-,N/A,,Clear,10,2013-11-19 19:35:00
2:55 PM,58.3,25.5,28,30.12,10.0,NNE,8.1,-,N/A,,Clear,20,2013-11-19 19:55:00
3:15 PM,58.3,24.8,28,30.12,10.0,NNE,6.9,-,N/A,,Clear,30,2013-11-19 20:15:00
3:35 PM,58.1,26.2,30,30.13,10.0,NNW,4.6,-,N/A,,Clear,340,2013-11-19 20:35:00
3:55 PM,57.2,25.7,30,30.14,10.0,North,5.8,-,N/A,,Clear,350,2013-11-19 20:55:00
4:15 PM,56.3,25.5,31,30.15,10.0,North,4.6,-,N/A,,Clear,360,2013-11-19 21:15:00
4:35 PM,55.2,25.9,32,30.15,10.0,NNE,3.5,-,N/A,,Clear,20,2013-11-19 21:35:00
4:55 PM,53.8,25.9,34,30.16,10.0,Calm,Calm,-,N/A,,Clear,0,2013-11-19 21:55:00
5:15 PM,52.5,26.4,36,30.17,10.0,Calm,Calm,-,N/A,,Clear,0,2013-11-19 22:15:00
5:35 PM,51.4,26.8,38,30.19,10.0,NNE,4.6,-,N/A,,Clear,30,2013-11-19 22:35:00
5:55 PM,50.9,27.9,41,30.20,10.0,NNE,4.6,-,N/A,,Clear,30,2013-11-19 22:55:00
6:15 PM,48.7,29.8,48,30.21,10.0,Calm,Calm,-,N/A,,Clear,0,2013-11-19 23:15:00
6:35 PM,48.2,29.7,49,30.22,10.0,NNE,4.6,-,N/A,,Clear,30,2013-11-19 23:35:00
6:55 PM,46.9,30.7,53,30.22,10.0,North,4.6,-,N/A,,Clear,10,2013-11-19 23:55:00
7:15 PM,46.9,29.8,51,30.22,10.0,North,3.5,-,N/A,,Clear,10,2013-11-20 00:15:00
7:35 PM,47.3,28.9,49,30.22,10.0,NNE,4.6,-,N/A,,Clear,30,2013-11-20 00:35:00
7:55 PM,46.0,29.7,53,30.23,10.0,NE,4.6,-,N/A,,Clear,40,2013-11-20 00:55:00
8:15 PM,46.0,29.1,52,30.24,10.0,NNE,3.5,-,N/A,,Clear,30,2013-11-20 01:15:00
8:35 PM,45.5,29.8,54,30.25,10.0,NNE,3.5,-,N/A,,Clear,20,2013-11-20 01:35:00
8:55 PM,45.0,29.7,55,30.25,10.0,NNE,4.6,-,N/A,,Clear,30,2013-11-20 01:55:00
9:15 PM,45.3,29.3,54,30.25,10.0,NNE,6.9,-,N/A,,Clear,30,2013-11-20 02:15:00
9:35 PM,44.6,29.8,56,30.26,10.0,NE,4.6,-,N/A,,Clear,40,2013-11-20 02:35:00
9:55 PM,45.0,29.8,55,30.27,10.0,NE,5.8,-,N/A,,Clear,40,2013-11-20 02:55:00
10:15 PM,44.6,30.7,58,30.28,10.0,NE,5.8,-,N/A,,Clear,50,2013-11-20 03:15:00
10:35 PM,45.1,30.0,55,30.30,10.0,NE,6.9,-,N/A,,Clear,50,2013-11-20 03:35:00
10:55 PM,45.1,30.2,56,30.29,10.0,NE,8.1,-,N/A,,Clear,50,2013-11-20 03:55:00
11:15 PM,44.6,29.8,56,30.30,10.0,NE,8.1,-,N/A,,Clear,40,2013-11-20 04:15:00
11:35 PM,43.9,29.7,57,30.31,10.0,NE,8.1,-,N/A,,Clear,40,2013-11-20 04:35:00
11:55 PM,43.7,29.8,58,30.31,10.0,NE,9.2,-,N/A,,Clear,40,2013-11-20 04:55:00